Weather History for Camp Pendleton, CA

Change the Weather History Date:

Monday, December 3, 2012

  Actual Average Record
Temperature  
Mean Temperature 66 °F -  
Max Temperature 72 °F 66 °F 78 °F (2006)
Min Temperature 60 °F 38 °F 33 °F (2003)
Cooling Degree Days 1    
Growing Degree Days 16 (Base 50)    
Moisture  
Dew Point 58 °F    
Average Humidity 84    
Maximum Humidity 90    
Minimum Humidity 63    
Precipitation  
Precipitation 0.02 in - - ()
Sea Level Pressure  
Sea Level Pressure 30.16 in    
Wind  
Wind Speed 1 mph (SW)    
Max Wind Speed 7 mph    
Max Gust Speed -    
Visibility 8 miles    
Events Rain    
Averages and records for this station are not official NWS values.
T = Trace of Precipitation, MM = Missing Value Source: NWS Daily Summary

Daily Weather History Graph

Daily Weather History Graph

Search for Another Location

Airport:

Trip Planner

Search our weather history database for the weather conditions in past years. The results will help you decide how hot, cold, wet, or windy it might be!

Date:

Astronomy

Dec. 03, 2012 Rise Set
Actual Time 6:37 AM PST 4:41 PM PST
Civil Twilight 6:10 AM PST 5:08 PM PST
Nautical Twilight 5:39 AM PST 5:39 PM PST
Astronomical Twilight 5:09 AM PST 6:09 PM PST
Moon 9:24 PM PST (12/3) 10:10 AM PST (12/3)
Length of Visible Light 10h 58m
Length of Day
10h 04m
Waning Gibbous, 77% of the Moon is Illuminated
Dec 3
Waning Gibbous
Dec 6
Last Quarter
Dec 13
New
Dec 19
First Quarter
Dec 28
Full

Hourly Weather History & Observations

Time (PST) Temp. Dew Point Humidity Pressure Visibility Wind Dir Wind Speed Gust Speed Precip Events Conditions
12:54 AM 60.1 °F 57.0 °F 90% 30.12 in 10.0 mi Calm Calm - N/A   Overcast
1:54 AM 60.1 °F 57.0 °F 90% 30.13 in 10.0 mi Calm Calm - N/A   Overcast
2:30 AM 60.8 °F 57.2 °F 88% 30.14 in 4.0 mi Calm Calm - 0.00 in Rain Light Rain
2:43 AM 60.8 °F 57.2 °F 88% 30.14 in 7.0 mi Calm Calm - 0.00 in   Overcast
2:54 AM 60.1 °F 57.0 °F 90% 30.14 in 9.0 mi Calm Calm - 0.00 in   Overcast
3:54 AM 60.1 °F 57.0 °F 90% 30.13 in 8.0 mi Calm Calm - N/A   Overcast
4:54 AM 60.1 °F 57.0 °F 90% 30.14 in 4.0 mi Calm Calm - 0.01 in Rain Light Rain
5:54 AM 60.1 °F 57.0 °F 90% 30.15 in 3.0 mi Calm Calm - 0.01 in   Mostly Cloudy
6:42 AM 60.8 °F 57.2 °F 88% 30.16 in 4.0 mi ENE 3.5 mph - N/A   Overcast
6:54 AM 61.0 °F 57.0 °F 87% 30.16 in 5.0 mi Calm Calm - N/A   Overcast
7:54 AM 61.0 °F 57.0 °F 87% 30.18 in 5.0 mi Calm Calm - N/A   Overcast
8:54 AM 62.1 °F 57.9 °F 86% 30.18 in 3.0 mi Calm Calm - N/A   Mostly Cloudy
9:54 AM 63.0 °F 59.0 °F 87% 30.19 in 4.0 mi Calm Calm - N/A   Mostly Cloudy
10:36 AM 62.6 °F 59.0 °F 88% 30.19 in 5.0 mi WSW 3.5 mph - N/A   Mostly Cloudy
10:54 AM 63.3 °F 59.0 °F 86% 30.19 in 5.0 mi SW 3.5 mph - N/A   Mostly Cloudy
11:54 AM 64.0 °F 60.1 °F 87% 30.16 in 10.0 mi SW 4.6 mph - N/A   Mostly Cloudy
12:28 PM 69.8 °F 60.8 °F 73% 30.15 in 10.0 mi Variable 5.8 mph - N/A   Mostly Cloudy
12:54 PM 71.1 °F 60.1 °F 68% 30.14 in 10.0 mi Variable 6.9 mph - N/A   Mostly Cloudy
1:54 PM 72.3 °F 59.0 °F 63% 30.12 in 10.0 mi WSW 4.6 mph - N/A   Mostly Cloudy
2:54 PM 68.0 °F 59.0 °F 73% 30.11 in 10.0 mi WSW 4.6 mph - N/A   Mostly Cloudy
3:54 PM 68.0 °F 59.0 °F 73% 30.12 in 10.0 mi SSW 4.6 mph - N/A   Mostly Cloudy
4:54 PM 66.2 °F 57.9 °F 75% 30.12 in 10.0 mi SW 3.5 mph - N/A   Mostly Cloudy
5:54 PM 64.4 °F 57.9 °F 79% 30.14 in 10.0 mi Calm Calm - N/A   Overcast
6:54 PM 64.4 °F 57.0 °F 77% 30.16 in 10.0 mi SW 3.5 mph - N/A   Overcast
7:54 PM 63.7 °F 57.0 °F 79% 30.17 in 10.0 mi Calm Calm - N/A   Overcast
8:54 PM 61.0 °F 57.0 °F 87% 30.18 in 10.0 mi Calm Calm - N/A   Overcast
9:28 PM 60.8 °F 57.2 °F 88% 30.18 in 7.0 mi Calm Calm - N/A   Overcast
9:54 PM 61.0 °F 57.0 °F 87% 30.19 in 10.0 mi Calm Calm - N/A   Overcast
10:23 PM 60.8 °F 57.2 °F 88% 30.19 in 10.0 mi West 3.5 mph - N/A   Overcast
10:33 PM 60.8 °F 57.2 °F 88% 30.19 in 10.0 mi West 3.5 mph - N/A   Overcast
10:54 PM 60.1 °F 57.0 °F 90% 30.19 in 10.0 mi Calm Calm - N/A   Overcast
11:45 PM 60.8 °F 55.4 °F 82% 30.18 in 10.0 mi Calm Calm - N/A   Mostly Cloudy
11:54 PM 60.1 °F 55.9 °F 86% 30.18 in 10.0 mi Calm Calm - N/A   Mostly Cloudy